Hourly Weather Roundup
Issued by NWS Central Illinois

Home | Current Version | Previous Version | Text Only | Print | Product List | Glossary On
Versions: 1 2 3 4 5 6 7 8 9 10 11 12 13 14 15 16 17 18 19 20 21 22 23 24 25 26 27 28 29 30 31 32 33 34 35 36 37 38 39 40 41 42 43 44 45 46 47 48 49 50
000
NZUS43 KILX 271510
HWRILX

AREA WEATHER ROUNDUP
NATIONAL WEATHER SERVICE, LINCOLN IL
900 AM CST SAT DEC 27 2014


CITY           SKY/WX    TMP DP  RH WIND       PRES   REMARKS
BLOOMINGTON    CLOUDY    47  47 100 SW16      30.04R FOG
CHAMPAIGN      FOG       47  45  93 SW16      30.07R VSB 1
DECATUR        CLOUDY    48  46  93 SW15      30.08R
FLORA          CLOUDY    46  46  98 S10       30.14R FOG
GALESBURG      CLOUDY    37  33  87 W20       30.08R WCI  26
JACKSONVILLE   CLOUDY    46  42  86 W20       30.11R
LACON          CLOUDY    44  41  86 W15G29    30.03R
LAWRENCEVILLE  CLOUDY    46  45  96 S8        30.16R FOG
LITCHFIELD     CLOUDY    46  44  94 S13       30.11R
$$


CITY           SKY/WX    TMP DP  RH WIND       PRES   REMARKS
LINCOLN        CLOUDY    48  47  93 S7        30.05R
MACOMB         CLOUDY    37  34  87 W21G26    30.12R WCI  27
MATTOON        CLOUDY    46  45  96 S13       30.07F FOG
MT CARMEL AP   CLOUDY    48  45  87 S8        30.16R
OLNEY-NOBLE AP CLOUDY    45  45 100 S7        30.15R FOG
PARIS          CLOUDY    46  46 100 S13       30.11S FOG
PEORIA         CLOUDY    44  38  79 W21G28    30.07R
PONTIAC        CLOUDY    48  47  97 S16G23    30.02R FOG
RANTOUL        CLOUDY    48  47  97 SW15      30.06R FOG
ROBINSON       CLOUDY    45  44  98 S8        30.16R FOG
SPRINGFIELD    LGT RAIN  49  46  90 SW10      30.08R FOG
TAYLORVILLE    CLOUDY    45  45 100 SW13G18   30.09R
$$

...REGIONAL REPORTS...


CITY           SKY/WX    TMP DP  RH WIND       PRES   REMARKS
CHICAGO O`HARE CLOUDY    47  44  90 S14G22    29.93F
KANKAKEE       CLOUDY    47  46  97 S17       30.02R FOG
MOLINE         CLOUDY    36  30  79 W14G28    30.04R WCI  27
MOUNT VERNON   CLOUDY    48  43  81 S8        30.14S
PITTSFIELD     CLOUDY    40  35  80 W14G22    30.14R WCI  33
QUINCY         CLOUDY    38  31  76 W12G21    30.14R WCI  30
ROCKFORD       CLOUDY    45  41  86 W18G25    29.93R
$$


CITY           SKY/WX    TMP DP  RH WIND       PRES   REMARKS
BURLINGTON     CLOUDY    37  32  82 W10       30.07F WCI  30
CEDAR RAPIDS   CLOUDY    32  30  92 W18G25    30.01R WCI  20
DES MOINES     CLOUDY    28  23  81 NW14      30.15R WCI  17
KIRKSVILLE     CLOUDY    35  31  85 W15       30.19R WCI  25
OTTUMWA        CLOUDY    32  27  81 W14G23    30.11R WCI  22
ST LOUIS       LGT RAIN  46  43  87 NW16      30.15R FOG
$$


CITY           SKY/WX    TMP DP  RH WIND       PRES   REMARKS
TERRE HAUTE    CLOUDY    45  43  93 S10       30.13S FOG
EVANSVILLE     CLOUDY    48  45  89 S8        30.19R
INDIANAPOLIS   DRIZZLE   43  42  97 S9        30.13S FOG
LAFAYETTE      CLOUDY    44  44 100 S8        30.09S FOG
MADISON        CLOUDY    42  39  89 SW8       29.84F
MILWAUKEE      LGT RAIN  48  44  86 SW14      29.87F FOG
$$




USA.gov is the U.S. government's official web portal to all federal, state and local government web resources and services.